| time (UTC) | temp F | wind direction | speed MPH | gust MPH | rain 1hr in | rain 24hr in | rain mn in | humidity % | barometer mb |
| 20260506210311 | 60 | 231 | 1.0 | 7.0 | 0.00 | 0.00 | 0.00 | 98 | 1006.4 |
| 20260506205822 | 60 | 232 | 3.0 | 7.0 | 0.00 | 0.00 | 0.00 | 98 | 1006.4 |
| 20260506205300 | 60 | 165 | 1.0 | 10.0 | 0.00 | 0.00 | 0.00 | 98 | 1006.7 |
| 20260506204759 | 60 | 181 | 0.0 | 6.0 | 0.00 | 0.00 | 0.00 | 97 | 1006.7 |
| 20260506204320 | 60 | 220 | 3.0 | 8.0 | 0.00 | 0.00 | 0.00 | 97 | 1006.7 |
| 20260506203807 | 60 | 222 | 3.0 | 8.0 | 0.00 | 0.00 | 0.00 | 97 | 1006.7 |
| 20260506203258 | 60 | 207 | 3.0 | 7.0 | 0.00 | 0.00 | 0.00 | 97 | 1006.7 |
| 20260506202758 | 60 | 239 | 2.0 | 10.0 | 0.00 | 0.00 | 0.00 | 97 | 1006.7 |
| 20260506202325 | 60 | 200 | 2.0 | 10.0 | 0.00 | 0.00 | 0.00 | 96 | 1006.7 |
| 20260506201813 | 60 | 215 | 2.0 | 7.0 | 0.00 | 0.00 | 0.00 | 96 | 1006.7 |
| 20260506201253 | 60 | 239 | 2.0 | 6.0 | 0.00 | 0.00 | 0.00 | 96 | 1006.7 |
| 20260506200759 | 60 | 207 | 2.0 | 6.0 | 0.00 | 0.00 | 0.00 | 96 | 1006.8 |
| 20260506200253 | 60 | 214 | 3.0 | 8.0 | 0.00 | 0.00 | 0.00 | 96 | 1006.8 |
| 20260506195827 | 60 | 216 | 3.0 | 9.0 | 0.00 | 0.00 | 0.00 | 96 | 1006.8 |
| 20260506195327 | 60 | 187 | 3.0 | 9.0 | 0.00 | 0.00 | 0.00 | 96 | 1006.9 |
| 20260506194759 | 60 | 228 | 4.0 | 10.0 | 0.00 | 0.00 | 0.00 | 96 | 1006.9 |
| 20260506194302 | 60 | 205 | 4.0 | 10.0 | 0.00 | 0.00 | 0.00 | 96 | 1006.9 |
| 20260506193804 | 60 | 188 | 3.0 | 11.0 | 0.00 | 0.00 | 0.00 | 95 | 1007.1 |
| 20260506193308 | 60 | 220 | 5.0 | 11.0 | 0.00 | 0.00 | 0.00 | 95 | 1007.1 |
| 20260506192758 | 60 | 205 | 3.0 | 10.0 | 0.00 | 0.00 | 0.00 | 95 | 1007.1 |
| 20260506192259 | 60 | 237 | 4.0 | 10.0 | 0.00 | 0.00 | 0.00 | 95 | 1007.2 |
| 20260506191802 | 60 | 187 | 4.0 | 10.0 | 0.00 | 0.00 | 0.00 | 95 | 1007.2 |
| 20260506191305 | 60 | 208 | 2.0 | 9.0 | 0.00 | 0.00 | 0.00 | 95 | 1007.2 |
| 20260506190753 | 61 | 171 | 3.0 | 9.0 | 0.00 | 0.00 | 0.00 | 95 | 1007.2 |
| 20260506190300 | 60 | 207 | 2.0 | 8.0 | 0.00 | 0.00 | 0.00 | 95 | 1007.2 |
| 20260506185820 | 60 | 178 | 4.0 | 13.0 | 0.00 | 0.00 | 0.00 | 94 | 1007.2 |
| 20260506185306 | 60 | 224 | 4.0 | 15.0 | 0.00 | 0.00 | 0.00 | 94 | 1007.5 |
| 20260506184804 | 60 | 160 | 6.0 | 15.0 | 0.00 | 0.00 | 0.00 | 94 | 1007.5 |
| 20260506184310 | 60 | 259 | 3.0 | 13.0 | 0.00 | 0.00 | 0.00 | 94 | 1007.5 |
| 20260506183801 | 60 | 197 | 5.0 | 13.0 | 0.00 | 0.00 | 0.00 | 94 | 1007.7 |
| 20260506183311 | 60 | 187 | 4.0 | 12.0 | 0.00 | 0.00 | 0.00 | 94 | 1007.7 |
| 20260506182814 | 61 | 216 | 5.0 | 11.0 | 0.00 | 0.00 | 0.00 | 94 | 1007.7 |
| 20260506182317 | 61 | 177 | 4.0 | 12.0 | 0.00 | 0.00 | 0.00 | 93 | 1007.7 |
| 20260506181820 | 61 | 206 | 3.0 | 12.0 | 0.00 | 0.00 | 0.00 | 93 | 1007.7 |
| 20260506181307 | 61 | 193 | 5.0 | 9.0 | 0.00 | 0.00 | 0.00 | 93 | 1007.7 |
| 20260506180810 | 61 | 201 | 2.0 | 10.0 | 0.00 | 0.00 | 0.00 | 93 | 1007.7 |
| 20260506180329 | 61 | 225 | 6.0 | 10.0 | 0.00 | 0.00 | 0.00 | 92 | 1007.7 |
| 20260506175804 | 61 | 168 | 5.0 | 9.0 | 0.00 | 0.00 | 0.00 | 91 | 1007.7 |
| 20260506175310 | 61 | 160 | 2.0 | 7.0 | 0.00 | 0.00 | 0.00 | 91 | 1007.7 |
| 20260506174817 | 61 | 197 | 2.0 | 8.0 | 0.00 | 0.00 | 0.00 | 90 | 1007.7 |
| 20260506174308 | 62 | 202 | 2.0 | 8.0 | 0.00 | 0.00 | 0.00 | 90 | 1007.7 |
| 20260506173756 | 62 | 180 | 3.0 | 8.0 | 0.00 | 0.00 | 0.00 | 89 | 1008.3 |
| 20260506173320 | 62 | 178 | 2.0 | 9.0 | 0.00 | 0.00 | 0.00 | 89 | 1008.3 |
| 20260506172753 | 62 | 202 | 2.0 | 10.0 | 0.00 | 0.00 | 0.00 | 87 | 1008.3 |
| 20260506172320 | 62 | 212 | 3.0 | 10.0 | 0.00 | 0.00 | 0.00 | 87 | 1008.6 |
| 20260506171822 | 63 | 219 | 2.0 | 9.0 | 0.00 | 0.00 | 0.00 | 86 | 1008.6 |
| 20260506171304 | 63 | 164 | 3.0 | 12.0 | 0.00 | 0.00 | 0.00 | 84 | 1008.6 |
| 20260506170807 | 63 | 223 | 4.0 | 12.0 | 0.00 | 0.00 | 0.00 | 84 | 1008.7 |
| 20260506170314 | 63 | 237 | 4.0 | 12.0 | 0.00 | 0.00 | 0.00 | 83 | 1008.7 |
| 20260506165820 | 63 | 200 | 5.0 | 13.0 | 0.00 | 0.00 | 0.00 | 81 | 1008.7 |
| 20260506165310 | 64 | 182 | 6.0 | 11.0 | 0.00 | 0.00 | 0.00 | 80 | 1008.8 |
| 20260506164759 | 64 | 176 | 6.0 | 12.0 | 0.00 | 0.00 | 0.00 | 79 | 1008.8 |
| 20260506164323 | 64 | 260 | 5.0 | 12.0 | 0.00 | 0.00 | 0.00 | 79 | 1008.8 |
| 20260506163821 | 64 | 208 | 3.0 | 13.0 | 0.00 | 0.00 | 0.00 | 78 | 1008.6 |
| 20260506163339 | 65 | 198 | 7.0 | 13.0 | 0.00 | 0.00 | 0.00 | 77 | 1008.6 |
| 20260506162809 | 65 | 212 | 6.0 | 16.0 | 0.00 | 0.00 | 0.00 | 77 | 1008.6 |
| 20260506162256 | 65 | 258 | 6.0 | 16.0 | 0.00 | 0.00 | 0.00 | 77 | 1008.6 |
| 20260506161812 | 65 | 249 | 6.0 | 14.0 | 0.00 | 0.00 | 0.00 | 76 | 1008.6 |
| 20260506161303 | 65 | 185 | 6.0 | 14.0 | 0.00 | 0.00 | 0.00 | 74 | 1008.6 |
| 20260506160807 | 66 | 178 | 6.0 | 14.0 | 0.00 | 0.00 | 0.00 | 73 | 1008.8 |
| 20260506160312 | 66 | 198 | 4.0 | 14.0 | 0.00 | 0.00 | 0.00 | 72 | 1008.8 |
| 20260506155812 | 66 | 193 | 3.0 | 10.0 | 0.00 | 0.00 | 0.00 | 72 | 1008.8 |
| 20260506155300 | 66 | 200 | 3.0 | 17.0 | 0.00 | 0.00 | 0.00 | 73 | 1008.9 |
| 20260506154838 | 66 | 204 | 7.0 | 17.0 | 0.00 | 0.00 | 0.00 | 72 | 1008.9 |
| 20260506154311 | 67 | 202 | 6.0 | 13.0 | 0.00 | 0.00 | 0.00 | 72 | 1008.9 |
| 20260506153753 | 67 | 214 | 7.0 | 13.0 | 0.00 | 0.00 | 0.00 | 71 | 1008.8 |
| 20260506153317 | 67 | 210 | 6.0 | 13.0 | 0.00 | 0.00 | 0.00 | 70 | 1008.8 |
| 20260506152822 | 67 | 210 | 6.0 | 13.0 | 0.00 | 0.00 | 0.00 | 70 | 1008.8 |
| 20260506152311 | 67 | 191 | 6.0 | 12.0 | 0.00 | 0.00 | 0.00 | 70 | 1008.8 |
| 20260506151809 | 67 | 173 | 3.0 | 14.0 | 0.00 | 0.00 | 0.00 | 70 | 1008.8 |
| 20260506151307 | 67 | 191 | 7.0 | 14.0 | 0.00 | 0.00 | 0.00 | 70 | 1008.8 |
| 20260506150817 | 67 | 199 | 3.0 | 10.0 | 0.00 | 0.00 | 0.00 | 71 | 1008.8 |
| 20260506150304 | 67 | 260 | 5.0 | 15.0 | 0.00 | 0.00 | 0.00 | 70 | 1008.8 |
| 20260506145759 | 67 | 199 | 7.0 | 15.0 | 0.00 | 0.00 | 0.00 | 70 | 1008.8 |
| 20260506145259 | 67 | 175 | 6.0 | 10.0 | 0.00 | 0.00 | 0.00 | 71 | 1009.2 |
| 20260506144757 | 67 | 241 | 1.0 | 10.0 | 0.00 | 0.00 | 0.00 | 72 | 1009.2 |
| 20260506144314 | 67 | 189 | 4.0 | 10.0 | 0.00 | 0.00 | 0.00 | 72 | 1009.2 |
| 20260506143813 | 67 | 189 | 4.0 | 13.0 | 0.00 | 0.00 | 0.00 | 72 | 1009.2 |
| 20260506143303 | 67 | 218 | 5.0 | 13.0 | 0.00 | 0.00 | 0.00 | 72 | 1009.2 |
| 20260506142806 | 67 | 210 | 3.0 | 9.0 | 0.00 | 0.00 | 0.00 | 73 | 1009.2 |
| 20260506142313 | 66 | 259 | 4.0 | 8.0 | 0.00 | 0.00 | 0.00 | 74 | 1009.2 |
| 20260506141817 | 66 | 245 | 4.0 | 10.0 | 0.00 | 0.00 | 0.00 | 74 | 1009.2 |
| 20260506141304 | 66 | 179 | 4.0 | 11.0 | 0.00 | 0.00 | 0.00 | 75 | 1009.2 |
| 20260506140806 | 65 | 195 | 6.0 | 11.0 | 0.00 | 0.00 | 0.00 | 75 | 1009.3 |
| 20260506140327 | 65 | 182 | 6.0 | 11.0 | 0.00 | 0.00 | 0.00 | 76 | 1009.3 |
| 20260506135802 | 65 | 195 | 5.0 | 9.0 | 0.00 | 0.00 | 0.00 | 76 | 1009.3 |
| 20260506135307 | 65 | 206 | 4.0 | 11.0 | 0.00 | 0.00 | 0.00 | 76 | 1009.3 |
| 20260506134758 | 65 | 210 | 4.0 | 12.0 | 0.00 | 0.00 | 0.00 | 77 | 1009.3 |
| 20260506134259 | 65 | 171 | 5.0 | 9.0 | 0.00 | 0.00 | 0.00 | 77 | 1009.3 |
| 20260506133819 | 64 | 197 | 5.0 | 13.0 | 0.00 | 0.00 | 0.00 | 78 | 1009.2 |
| 20260506133301 | 64 | 225 | 5.0 | 13.0 | 0.00 | 0.00 | 0.00 | 78 | 1009.2 |
| 20260506132758 | 64 | 193 | 5.0 | 11.0 | 0.00 | 0.00 | 0.00 | 78 | 1009.2 |
| 20260506132258 | 64 | 208 | 5.0 | 11.0 | 0.00 | 0.00 | 0.00 | 79 | 1009.3 |
| 20260506131822 | 63 | 193 | 4.0 | 9.0 | 0.00 | 0.00 | 0.00 | 80 | 1009.3 |
| 20260506131312 | 63 | 204 | 4.0 | 8.0 | 0.00 | 0.00 | 0.00 | 81 | 1009.3 |
| 20260506130758 | 63 | 209 | 2.0 | 7.0 | 0.00 | 0.00 | 0.00 | 81 | 1009.4 |
| 20260506130256 | 63 | 228 | 1.0 | 8.0 | 0.00 | 0.00 | 0.00 | 82 | 1009.4 |
| 20260506125759 | 63 | 195 | 3.0 | 9.0 | 0.00 | 0.00 | 0.00 | 82 | 1009.4 |
| 20260506125307 | 62 | 189 | 2.0 | 9.0 | 0.00 | 0.00 | 0.00 | 82 | 1009.8 |
| 20260506124759 | 62 | 206 | 3.0 | 11.0 | 0.00 | 0.00 | 0.00 | 83 | 1009.8 |
| 20260506124320 | 62 | 209 | 3.0 | 11.0 | 0.00 | 0.00 | 0.00 | 83 | 1009.8 |
| 20260506123805 | 62 | 177 | 3.0 | 9.0 | 0.00 | 0.00 | 0.00 | 83 | 1009.8 |
| 20260506123255 | 62 | 229 | 3.0 | 10.0 | 0.00 | 0.00 | 0.00 | 83 | 1009.8 |
| 20260506122818 | 62 | 176 | 3.0 | 9.0 | 0.00 | 0.00 | 0.00 | 83 | 1009.8 |
| 20260506122342 | 62 | 200 | 1.0 | 12.0 | 0.00 | 0.00 | 0.00 | 84 | 1009.8 |
| 20260506121818 | 61 | 185 | 6.0 | 12.0 | 0.00 | 0.00 | 0.00 | 83 | 1009.8 |
| 20260506121336 | 62 | 178 | 5.0 | 11.0 | 0.00 | 0.00 | 0.00 | 83 | 1009.8 |
| 20260506120809 | 62 | 193 | 5.0 | 14.0 | 0.00 | 0.00 | 0.00 | 84 | 1009.8 |
| 20260506120308 | 61 | 252 | 5.0 | 14.0 | 0.00 | 0.00 | 0.00 | 84 | 1009.8 |
| 20260506115754 | 61 | 193 | 4.0 | 8.0 | 0.00 | 0.00 | 0.00 | 85 | 1009.8 |
| 20260506115319 | 61 | 266 | 2.0 | 12.0 | 0.00 | 0.00 | 0.00 | 85 | 1009.8 |
| 20260506114841 | 61 | 247 | 5.0 | 12.0 | 0.00 | 0.00 | 0.00 | 85 | 1009.8 |
| 20260506114320 | 60 | 268 | 6.0 | 10.0 | 0.00 | 0.00 | 0.00 | 86 | 1009.8 |
| 20260506113840 | 60 | 212 | 4.0 | 10.0 | 0.00 | 0.00 | 0.00 | 86 | 1009.8 |
| 20260506113313 | 60 | 226 | 4.0 | 7.0 | 0.00 | 0.00 | 0.00 | 86 | 1009.8 |
| 20260506112759 | 60 | 233 | 3.0 | 8.0 | 0.00 | 0.00 | 0.00 | 87 | 1009.8 |
| 20260506112258 | 60 | 185 | 4.0 | 10.0 | 0.00 | 0.00 | 0.00 | 87 | 1010.1 |
| 20260506111757 | 59 | 218 | 6.0 | 10.0 | 0.00 | 0.00 | 0.00 | 87 | 1010.1 |
| 20260506111257 | 59 | 210 | 4.0 | 11.0 | 0.00 | 0.00 | 0.00 | 87 | 1010.1 |
| 20260506110759 | 59 | 178 | 3.0 | 9.0 | 0.00 | 0.00 | 0.00 | 88 | 1010.0 |
| 20260506110305 | 59 | 205 | 4.0 | 9.0 | 0.00 | 0.00 | 0.00 | 88 | 1010.0 |
| 20260506105800 | 59 | 203 | 4.0 | 7.0 | 0.00 | 0.00 | 0.00 | 88 | 1010.0 |
| 20260506105301 | 59 | 208 | 2.0 | 7.0 | 0.00 | 0.00 | 0.00 | 89 | 1009.9 |
| 20260506104805 | 59 | 191 | 1.0 | 8.0 | 0.00 | 0.00 | 0.00 | 89 | 1009.9 |
| 20260506104306 | 59 | 187 | 3.0 | 8.0 | 0.00 | 0.00 | 0.00 | 89 | 1009.9 |
| 20260506103825 | 59 | 258 | 2.0 | 7.0 | 0.00 | 0.00 | 0.00 | 89 | 1009.8 |
| 20260506103310 | 58 | 207 | 4.0 | 8.0 | 0.00 | 0.00 | 0.00 | 89 | 1009.8 |
| 20260506102801 | 58 | 177 | 2.0 | 8.0 | 0.00 | 0.00 | 0.00 | 89 | 1009.8 |
| 20260506102259 | 58 | 191 | 0.0 | 6.0 | 0.00 | 0.00 | 0.00 | 89 | 1009.8 |
| 20260506101803 | 58 | 188 | 0.0 | 10.0 | 0.00 | 0.00 | 0.00 | 89 | 1009.8 |
| 20260506101323 | 58 | 194 | 4.0 | 10.0 | 0.00 | 0.00 | 0.00 | 89 | 1009.8 |
| 20260506100757 | 58 | 231 | 1.0 | 8.0 | 0.00 | 0.00 | 0.00 | 89 | 1009.8 |
| 20260506100303 | 58 | 176 | 4.0 | 8.0 | 0.00 | 0.00 | 0.00 | 89 | 1009.8 |
| 20260506095815 | 58 | 202 | 2.0 | 6.0 | 0.00 | 0.00 | 0.00 | 89 | 1009.8 |
| 20260506095318 | 58 | 243 | 2.0 | 6.0 | 0.00 | 0.00 | 0.00 | 88 | 1009.8 |
| 20260506094808 | 58 | 201 | 3.0 | 6.0 | 0.00 | 0.00 | 0.00 | 88 | 1009.8 |
| 20260506094309 | 58 | 225 | 2.0 | 7.0 | 0.00 | 0.00 | 0.00 | 88 | 1009.8 |
| 20260506093813 | 58 | 206 | 2.0 | 7.0 | 0.00 | 0.00 | 0.00 | 88 | 1009.7 |
| 20260506093316 | 58 | 183 | 4.0 | 7.0 | 0.00 | 0.00 | 0.00 | 88 | 1009.7 |
| 20260506092806 | 58 | 206 | 2.0 | 9.0 | 0.00 | 0.00 | 0.00 | 87 | 1009.7 |
| 20260506092319 | 59 | 198 | 3.0 | 9.0 | 0.00 | 0.00 | 0.00 | 87 | 1009.8 |
| 20260506091810 | 59 | 226 | 2.0 | 11.0 | 0.00 | 0.00 | 0.00 | 87 | 1009.8 |
| 20260506091307 | 59 | 189 | 5.0 | 11.0 | 0.00 | 0.00 | 0.00 | 87 | 1009.8 |
| 20260506090810 | 59 | 182 | 3.0 | 9.0 | 0.00 | 0.00 | 0.00 | 87 | 1009.8 |
| 20260506090316 | 59 | 230 | 2.0 | 9.0 | 0.00 | 0.00 | 0.00 | 86 | 1009.8 |
| 20260506085841 | 59 | 182 | 4.0 | 11.0 | 0.00 | 0.00 | 0.00 | 86 | 1009.8 |
| 20260506085310 | 59 | 217 | 5.0 | 11.0 | 0.00 | 0.00 | 0.00 | 86 | 1009.8 |
| 20260506084811 | 59 | 191 | 4.0 | 9.0 | 0.00 | 0.00 | 0.00 | 86 | 1009.8 |
| 20260506084308 | 59 | 209 | 5.0 | 9.0 | 0.00 | 0.00 | 0.00 | 86 | 1009.8 |
| 20260506083832 | 59 | 182 | 3.0 | 7.0 | 0.00 | 0.00 | 0.00 | 85 | 1009.8 |
| 20260506083314 | 59 | 204 | 3.0 | 10.0 | 0.00 | 0.00 | 0.00 | 85 | 1009.8 |
| 20260506082818 | 59 | 188 | 5.0 | 9.0 | 0.00 | 0.00 | 0.00 | 85 | 1009.8 |
| 20260506082305 | 59 | 207 | 4.0 | 9.0 | 0.00 | 0.00 | 0.00 | 85 | 1009.8 |
| 20260506081802 | 59 | 234 | 4.0 | 7.0 | 0.00 | 0.00 | 0.00 | 84 | 1009.8 |
| 20260506081302 | 59 | 178 | 3.0 | 9.0 | 0.00 | 0.00 | 0.00 | 84 | 1009.8 |
| 20260506080803 | 60 | 198 | 3.0 | 10.0 | 0.00 | 0.00 | 0.00 | 84 | 1009.9 |
| 20260506080256 | 60 | 231 | 3.0 | 10.0 | 0.00 | 0.00 | 0.00 | 84 | 1009.9 |
| 20260506073309 | 60 | 221 | 3.0 | 7.0 | 0.00 | 0.00 | 0.00 | 83 | 1009.8 |
| 20260506072810 | 60 | 202 | 1.0 | 10.0 | 0.00 | 0.00 | 0.00 | 82 | 1009.8 |
| 20260506072301 | 60 | 220 | 5.0 | 10.0 | 0.00 | 0.00 | 0.00 | 82 | 1009.8 |
| 20260506071802 | 60 | 206 | 2.0 | 10.0 | 0.00 | 0.00 | 0.00 | 82 | 1009.8 |
| 20260506071301 | 60 | 233 | 2.0 | 9.0 | 0.00 | 0.00 | 0.00 | 81 | 1009.8 |
| 20260506070803 | 60 | 198 | 3.0 | 8.0 | 0.00 | 0.00 | 0.00 | 81 | 1009.8 |
| 20260506070257 | 61 | 220 | 3.0 | 12.0 | 0.00 | 0.00 | 0.00 | 81 | 1009.8 |
| 20260506062300 | 61 | 179 | 1.0 | 7.0 | 0.00 | 0.00 | 0.00 | 80 | 1009.7 |
| 20260506061801 | 61 | 230 | 1.0 | 7.0 | 0.00 | 0.00 | 0.00 | 80 | 1009.7 |
| 20260506061256 | 61 | 168 | 1.0 | 6.0 | 0.00 | 0.00 | 0.00 | 79 | 1009.7 |
| 20260506060759 | 61 | 203 | 2.0 | 8.0 | 0.00 | 0.00 | 0.00 | 79 | 1009.6 |
| 20260506060317 | 61 | 202 | 4.0 | 8.0 | 0.00 | 0.00 | 0.00 | 79 | 1009.6 |
| 20260506051317 | 63 | 215 | 3.0 | 8.0 | 0.00 | 0.00 | 0.00 | 75 | 1009.9 |
| 20260506050820 | 63 | 222 | 2.0 | 8.0 | 0.00 | 0.00 | 0.00 | 75 | 1010.0 |
| 20260506050307 | 63 | 254 | 3.0 | 8.0 | 0.00 | 0.00 | 0.00 | 74 | 1010.0 |
| 20260506044813 | 63 | 200 | 2.0 | 9.0 | 0.00 | 0.00 | 0.00 | 72 | 1010.2 |
| 20260506044314 | 64 | 239 | 1.0 | 6.0 | 0.00 | 0.00 | 0.00 | 71 | 1010.2 |
| 20260506043818 | 64 | 269 | 1.0 | 8.0 | 0.00 | 0.00 | 0.00 | 70 | 1010.1 |
| 20260506043310 | 64 | 199 | 2.0 | 11.0 | 0.00 | 0.00 | 0.00 | 70 | 1010.1 |
| 20260506042834 | 64 | 211 | 3.0 | 11.0 | 0.00 | 0.00 | 0.00 | 69 | 1010.1 |
| 20260506042310 | 64 | 211 | 1.0 | 6.0 | 0.00 | 0.00 | 0.00 | 69 | 1010.2 |
| 20260506041823 | 64 | 198 | 1.0 | 6.0 | 0.00 | 0.00 | 0.00 | 68 | 1010.2 |
| 20260506041304 | 64 | 216 | 2.0 | 6.0 | 0.00 | 0.00 | 0.00 | 68 | 1010.2 |
| 20260506040814 | 64 | 235 | 0.0 | 9.0 | 0.00 | 0.00 | 0.00 | 68 | 1010.2 |
| 20260506040314 | 65 | 212 | 4.0 | 9.0 | 0.00 | 0.00 | 0.00 | 67 | 1010.2 |
| 20260506035809 | 65 | 201 | 1.0 | 5.0 | 0.00 | 0.00 | 0.00 | 67 | 1010.2 |
| 20260506035308 | 65 | 224 | 1.0 | 10.0 | 0.00 | 0.00 | 0.00 | 67 | 1010.1 |
| 20260506034806 | 65 | 196 | 4.0 | 10.0 | 0.00 | 0.00 | 0.00 | 67 | 1010.1 |
| 20260506034328 | 65 | 186 | 1.0 | 8.0 | 0.00 | 0.00 | 0.00 | 67 | 1010.1 |
| 20260506033806 | 65 | 231 | 3.0 | 10.0 | 0.00 | 0.00 | 0.00 | 66 | 1010.2 |
| 20260506033301 | 65 | 193 | 5.0 | 10.0 | 0.00 | 0.00 | 0.00 | 66 | 1010.2 |
| 20260506032804 | 65 | 181 | 3.0 | 8.0 | 0.00 | 0.00 | 0.00 | 66 | 1010.2 |
| 20260506032306 | 65 | 196 | 3.0 | 6.0 | 0.00 | 0.00 | 0.00 | 66 | 1010.1 |
| 20260506031805 | 65 | 236 | 2.0 | 7.0 | 0.00 | 0.00 | 0.00 | 66 | 1010.1 |
| 20260506031258 | 65 | 198 | 3.0 | 7.0 | 0.00 | 0.00 | 0.00 | 66 | 1010.1 |
| 20260506030758 | 65 | 223 | 3.0 | 9.0 | 0.00 | 0.00 | 0.00 | 66 | 1009.9 |
| 20260506030309 | 65 | 204 | 3.0 | 9.0 | 0.00 | 0.00 | 0.00 | 66 | 1009.9 |
| 20260506025815 | 65 | 181 | 3.0 | 9.0 | 0.00 | 0.00 | 0.00 | 66 | 1009.9 |
| 20260506025308 | 65 | 206 | 3.0 | 9.0 | 0.00 | 0.00 | 0.00 | 67 | 1009.9 |
| 20260506024756 | 65 | 232 | 3.0 | 8.0 | 0.00 | 0.00 | 0.00 | 66 | 1009.9 |
| 20260506024256 | 65 | 189 | 3.0 | 6.0 | 0.00 | 0.00 | 0.00 | 66 | 1009.9 |
| 20260506023820 | 65 | 232 | 2.0 | 7.0 | 0.00 | 0.00 | 0.00 | 66 | 1009.9 |
| 20260506023320 | 65 | 221 | 3.0 | 8.0 | 0.00 | 0.00 | 0.00 | 65 | 1009.9 |
| 20260506022812 | 65 | 210 | 3.0 | 10.0 | 0.00 | 0.00 | 0.00 | 65 | 1009.9 |
| 20260506022256 | 65 | 233 | 1.0 | 10.0 | 0.00 | 0.00 | 0.00 | 65 | 1010.0 |
| 20260506021759 | 65 | 219 | 2.0 | 7.0 | 0.00 | 0.00 | 0.00 | 65 | 1010.0 |
| 20260506021300 | 65 | 200 | 3.0 | 8.0 | 0.00 | 0.00 | 0.00 | 65 | 1010.0 |
| 20260506020757 | 65 | 151 | 3.0 | 8.0 | 0.00 | 0.00 | 0.00 | 65 | 1009.9 |
| 20260506020256 | 65 | 202 | 1.0 | 5.0 | 0.00 | 0.00 | 0.00 | 64 | 1009.9 |
| 20260506015803 | 65 | 204 | 1.0 | 7.0 | 0.00 | 0.00 | 0.00 | 64 | 1009.9 |
| 20260506015301 | 65 | 248 | 1.0 | 8.0 | 0.00 | 0.00 | 0.00 | 64 | 1009.8 |
| 20260506014759 | 65 | 184 | 5.0 | 11.0 | 0.00 | 0.00 | 0.00 | 63 | 1009.8 |
| 20260506014305 | 66 | 193 | 4.0 | 11.0 | 0.00 | 0.00 | 0.00 | 63 | 1009.8 |
| 20260506013822 | 66 | 203 | 2.0 | 8.0 | 0.00 | 0.00 | 0.00 | 63 | 1009.7 |
| 20260506013310 | 66 | 218 | 3.0 | 10.0 | 0.00 | 0.00 | 0.00 | 62 | 1009.7 |
| 20260506012812 | 66 | 222 | 2.0 | 10.0 | 0.00 | 0.00 | 0.00 | 62 | 1009.7 |
| 20260506012319 | 66 | 177 | 2.0 | 6.0 | 0.00 | 0.00 | 0.00 | 62 | 1009.3 |
| 20260506011822 | 66 | 189 | 3.0 | 9.0 | 0.00 | 0.00 | 0.00 | 61 | 1009.3 |
| 20260506011253 | 66 | 212 | 2.0 | 7.0 | 0.00 | 0.00 | 0.00 | 61 | 1009.3 |
| 20260506010759 | 66 | 202 | 3.0 | 7.0 | 0.00 | 0.00 | 0.00 | 61 | 1009.3 |
| 20260506010305 | 66 | 212 | 0.0 | 7.0 | 0.00 | 0.00 | 0.00 | 61 | 1009.3 |
| 20260506005803 | 66 | 214 | 2.0 | 7.0 | 0.00 | 0.00 | 0.00 | 61 | 1009.3 |
| 20260506005306 | 67 | 220 | 0.0 | 8.0 | 0.00 | 0.00 | 0.00 | 60 | 1009.2 |
| 20260506004807 | 67 | 220 | 3.0 | 10.0 | 0.00 | 0.00 | 0.00 | 60 | 1009.2 |
| 20260506004305 | 67 | 197 | 2.0 | 10.0 | 0.00 | 0.00 | 0.00 | 60 | 1009.2 |
| 20260506003835 | 67 | 205 | 0.0 | 7.0 | 0.00 | 0.00 | 0.00 | 60 | 1008.8 |
| 20260506003304 | 67 | 201 | 3.0 | 11.0 | 0.00 | 0.00 | 0.00 | 59 | 1008.8 |
| 20260506002805 | 67 | 220 | 3.0 | 8.0 | 0.00 | 0.00 | 0.00 | 59 | 1008.8 |
| 20260506002311 | 67 | 226 | 4.0 | 9.0 | 0.00 | 0.00 | 0.00 | 59 | 1008.6 |
| 20260506001816 | 68 | 215 | 4.0 | 9.0 | 0.00 | 0.00 | 0.00 | 59 | 1008.6 |
| 20260506001307 | 68 | 219 | 1.0 | 9.0 | 0.00 | 0.00 | 0.00 | 59 | 1008.6 |
| 20260506000810 | 68 | 186 | 3.0 | 11.0 | 0.00 | 0.00 | 0.00 | 59 | 1008.3 |
| 20260506000335 | 68 | 179 | 4.0 | 11.0 | 0.00 | 0.00 | 0.00 | 58 | 1008.3 |
| 20260505235756 | 68 | 234 | 4.0 | 11.0 | 0.00 | 0.00 | 0.00 | 58 | 1008.3 |
| 20260505235257 | 69 | 174 | 5.0 | 13.0 | 0.00 | 0.00 | 0.00 | 58 | 1008.3 |
| 20260505234818 | 69 | 224 | 6.0 | 13.0 | 0.00 | 0.00 | 0.00 | 58 | 1008.3 |
| 20260505234314 | 69 | 245 | 3.0 | 8.0 | 0.00 | 0.00 | 0.00 | 58 | 1008.3 |
| 20260505233830 | 69 | 209 | 3.0 | 14.0 | 0.00 | 0.00 | 0.00 | 57 | 1008.0 |
| 20260505233308 | 69 | 185 | 4.0 | 14.0 | 0.00 | 0.00 | 0.00 | 57 | 1008.0 |
| 20260505232811 | 69 | 221 | 3.0 | 12.0 | 0.00 | 0.00 | 0.00 | 57 | 1008.0 |
| 20260505232317 | 70 | 171 | 4.0 | 12.0 | 0.00 | 0.00 | 0.00 | 57 | 1007.8 |
| 20260505231805 | 70 | 188 | 5.0 | 13.0 | 0.00 | 0.00 | 0.00 | 56 | 1007.8 |
| 20260505231325 | 70 | 241 | 6.0 | 14.0 | 0.00 | 0.00 | 0.00 | 56 | 1007.8 |
| 20260505230845 | 70 | 172 | 5.0 | 14.0 | 0.00 | 0.00 | 0.00 | 56 | 1007.7 |
| 20260505230309 | 70 | 189 | 7.0 | 13.0 | 0.00 | 0.00 | 0.00 | 56 | 1007.7 |
| 20260505225814 | 70 | 209 | 5.0 | 13.0 | 0.00 | 0.00 | 0.00 | 55 | 1007.7 |
| 20260505225316 | 71 | 180 | 7.0 | 14.0 | 0.00 | 0.00 | 0.00 | 55 | 1007.3 |
| 20260505224823 | 71 | 198 | 7.0 | 14.0 | 0.00 | 0.00 | 0.00 | 55 | 1007.3 |
| 20260505224308 | 71 | 169 | 7.0 | 18.0 | 0.00 | 0.00 | 0.00 | 54 | 1007.3 |
| 20260505223808 | 72 | 167 | 8.0 | 18.0 | 0.00 | 0.00 | 0.00 | 53 | 1006.9 |
| 20260505223316 | 72 | 157 | 5.0 | 13.0 | 0.00 | 0.00 | 0.00 | 53 | 1006.9 |
| 20260505222756 | 72 | 214 | 7.0 | 17.0 | 0.00 | 0.00 | 0.00 | 53 | 1006.9 |
| 20260505222258 | 73 | 175 | 6.0 | 15.0 | 0.00 | 0.00 | 0.00 | 52 | 1007.3 |
| 20260505221801 | 73 | 193 | 7.0 | 15.0 | 0.00 | 0.00 | 0.00 | 52 | 1007.3 |
| 20260505221259 | 73 | 204 | 5.0 | 12.0 | 0.00 | 0.00 | 0.00 | 52 | 1007.3 |
| 20260505220820 | 73 | 231 | 6.0 | 12.0 | 0.00 | 0.00 | 0.00 | 53 | 1007.3 |
| 20260505220256 | 73 | 226 | 5.0 | 13.0 | 0.00 | 0.00 | 0.00 | 52 | 1007.3 |
| 20260505215756 | 73 | 208 | 6.0 | 11.0 | 0.00 | 0.00 | 0.00 | 52 | 1007.3 |
| 20260505215300 | 74 | 166 | 5.0 | 12.0 | 0.00 | 0.00 | 0.00 | 52 | 1007.4 |
| 20260505214816 | 74 | 218 | 6.0 | 17.0 | 0.00 | 0.00 | 0.00 | 51 | 1007.4 |
| 20260505214305 | 74 | 220 | 8.0 | 17.0 | 0.00 | 0.00 | 0.00 | 51 | 1007.4 |
| 20260505213813 | 74 | 196 | 4.0 | 16.0 | 0.00 | 0.00 | 0.00 | 51 | 1007.3 |
| 20260505213253 | 74 | 210 | 8.0 | 14.0 | 0.00 | 0.00 | 0.00 | 50 | 1007.3 |
| 20260505212756 | 74 | 222 | 4.0 | 14.0 | 0.00 | 0.00 | 0.00 | 51 | 1007.3 |
| 20260505212258 | 75 | 210 | 8.0 | 14.0 | 0.00 | 0.00 | 0.00 | 51 | 1007.4 |
| 20260505211820 | 75 | 172 | 5.0 | 13.0 | 0.00 | 0.00 | 0.00 | 51 | 1007.4 |
| 20260505211420 | 74 | 220 | 6.0 | 15.0 | 0.00 | 0.00 | 0.00 | 53 | 1007.4 |
| 20260505210800 | 75 | 218 | 7.0 | 15.0 | 0.00 | 0.00 | 0.00 | 50 | 1007.2 |